Raleigh-Durham Airport, NC

7:26 AM EST on November 15, 2019 (GMT -0500)
Raleigh-Durham International

Weather History for KRDU - October, 2019

Change the Weather History Date:

Monday, October 21, 2019

  Actual Average Record
Temperature  
Mean Temperature 62 °F 60 °F  
Max Temperature 74 °F 71 °F 84 °F (1979)
Min Temperature 50 °F 48 °F 26 °F (1974)
Degree Days  
Heating Degree Days 3 7  
Month to date heating degree days 53 90  
Since 1 July heating degree days 53 111  
Cooling Degree Days 0 1  
Month to date cooling degree days 85 43  
Year to date cooling degree days 2070 1711  
Growing Degree Days 12 (Base 50)    
Moisture  
Dew Point 56 °F    
Average Humidity 79    
Maximum Humidity 100    
Minimum Humidity 57    
Precipitation  
Precipitation 0.00 in 0.11 in 2.22 in (1904)
Month to date precipitation 2.47 2.25  
Year to date precipitation 35.55 36.15  
Sea Level Pressure  
Sea Level Pressure 30.04 in    
Wind  
Wind Speed 5 mph (East)    
Max Wind Speed 13 mph    
Max Gust Speed 15 mph    
Visibility 10 miles    
Events      
T = Trace of Precipitation, MM = Missing Value Source: NWS Daily Summary

Daily Weather History Graph

Daily Weather History Graph

Search for Another Location

Airport or City:

Astronomy

Oct. 21, 2019 Rise Set
Actual Time 7:26 AM EDT 6:32 PM EDT
Civil Twilight 7:00 AM EDT 6:58 PM EDT
Nautical Twilight 6:31 AM EDT 7:27 PM EDT
Astronomical Twilight 6:01 AM EDT 7:57 PM EDT
Moon No Moon Rise 2:36 PM EDT (10/21)
Length of Visible Light 11h 57m
Length of Day
11h 05m
Waning Gibbous, 48% of the Moon is Illuminated
Oct 21
Waning Gibbous
Oct 27
New
Nov 4
First Quarter
Nov 12
Full
Nov 19
Last Quarter

Hourly Weather History & Observations

Time (EDT) Temp. Dew Point Humidity Pressure Visibility Wind Dir Wind Speed Gust Speed Precip Events Conditions
12:10 AM 59.0 °F 55.9 °F 90% 29.98 in 10.0 mi NNE 5.8 mph - N/A   Mostly Cloudy
12:51 AM 57.9 °F 55.9 °F 93% 29.98 in 10.0 mi North 4.6 mph - N/A   Mostly Cloudy
1:51 AM 57.0 °F 55.0 °F 93% 29.99 in 10.0 mi NNE 3.5 mph - N/A   Mostly Cloudy
2:51 AM 55.9 °F 55.0 °F 97% 29.99 in 10.0 mi Calm Calm - N/A   Mostly Cloudy
3:51 AM 54.0 °F 54.0 °F 100% 29.99 in 10.0 mi Calm Calm - N/A   Scattered Clouds
4:51 AM 53.1 °F 53.1 °F 100% 30.01 in 10.0 mi Calm Calm - N/A   Scattered Clouds
5:51 AM 51.1 °F 51.1 °F 100% 30.02 in 10.0 mi Calm Calm - N/A   Clear
6:51 AM 51.1 °F 51.1 °F 100% 30.04 in 10.0 mi Calm Calm - N/A   Scattered Clouds
7:51 AM 53.1 °F 53.1 °F 100% 30.06 in 10.0 mi NNE 3.5 mph - N/A   Mostly Cloudy
8:51 AM 55.9 °F 54.0 °F 93% 30.07 in 10.0 mi NE 8.1 mph - N/A   Mostly Cloudy
9:51 AM 60.1 °F 55.9 °F 86% 30.08 in 10.0 mi ENE 8.1 mph - N/A   Scattered Clouds
10:51 AM 64.0 °F 55.0 °F 73% 30.08 in 10.0 mi East 8.1 mph - N/A   Scattered Clouds
11:51 AM 66.9 °F 55.9 °F 68% 30.09 in 10.0 mi NE 4.6 mph - N/A   Scattered Clouds
12:51 PM 69.1 °F 55.9 °F 63% 30.08 in 10.0 mi SE 4.6 mph - N/A   Scattered Clouds
1:51 PM 73.9 °F 57.9 °F 57% 30.06 in 10.0 mi SW 4.6 mph - N/A   Mostly Cloudy
2:51 PM 72.0 °F 57.0 °F 59% 30.04 in 10.0 mi ESE 5.8 mph - N/A   Mostly Cloudy
3:51 PM 73.0 °F 57.9 °F 59% 30.04 in 10.0 mi Calm Calm - N/A   Mostly Cloudy
4:51 PM 72.0 °F 57.9 °F 61% 30.04 in 10.0 mi SSE 5.8 mph - N/A   Overcast
5:51 PM 69.1 °F 59.0 °F 70% 30.04 in 10.0 mi SE 5.8 mph - N/A   Overcast
6:51 PM 66.0 °F 60.1 °F 81% 30.04 in 10.0 mi SE 5.8 mph - N/A   Overcast
7:51 PM 64.0 °F 59.0 °F 84% 30.06 in 10.0 mi SE 6.9 mph - N/A   Overcast
8:51 PM 62.1 °F 59.0 °F 90% 30.06 in 10.0 mi SE 5.8 mph - N/A   Overcast
9:51 PM 61.0 °F 57.9 °F 90% 30.07 in 10.0 mi ESE 6.9 mph - N/A   Overcast
10:51 PM 60.1 °F 57.9 °F 93% 30.06 in 10.0 mi ESE 5.8 mph - N/A   Mostly Cloudy
11:51 PM 60.1 °F 57.9 °F 93% 30.07 in 10.0 mi Variable 6.9 mph - N/A   Overcast